KN4CGX15 Weather Reports


time (UTC)temp
C
wind
direction
speed
KPH
gust
KPH
rain 1hr
cm
rain 24hr
cm
rain mn
cm
humidity
%
barometer
mb
20260504081541 11 0 0.0 0.0 0.00 0.00 0.00 83 1018.0
20260504044542 12 0 0.0 0.0 0.00 0.00 0.00 77 1018.9
20260504043046 12 0 0.0 0.0 0.00 0.00 0.00 76 1019.0
20260504041540 12 0 0.0 0.0 0.00 0.00 0.00 74 1018.9
20260504040041 13 0 0.0 0.0 0.00 0.00 0.00 75 1018.8
20260504034538 13 0 0.0 0.0 0.00 0.00 0.00 78 1018.8
20260504033044 13 0 0.0 0.0 0.00 0.00 0.00 75 1018.7
20260504031545 13 0 0.0 0.0 0.00 0.00 0.00 70 1018.7
20260504030041 13 0 0.0 0.0 0.00 0.00 0.00 69 1018.7
20260504024539 14 0 0.0 0.0 0.00 0.00 0.00 73 1018.7
20260504023045 15 0 0.0 0.0 0.00 0.00 0.00 70 1018.7
20260504021547 15 0 0.0 0.0 0.00 0.00 0.00 67 1018.7
20260504020041 15 0 0.0 0.0 0.00 0.00 0.00 64 1018.6
20260504014542 16 0 0.0 0.0 0.00 0.00 0.00 61 1018.4
20260504013051 16 0 0.0 0.0 0.00 0.00 0.00 62 1018.1
20260504011538 17 0 0.0 0.0 0.00 0.00 0.00 59 1017.9
20260504010053 17 0 0.0 0.0 0.00 0.00 0.00 56 1017.9
20260504004547 18 0 0.0 0.0 0.00 0.00 0.00 55 1017.8
20260504003044 19 0 0.0 0.0 0.00 0.00 0.00 50 1017.7
20260504001543 20 0 0.0 0.0 0.00 0.00 0.00 47 1017.6
20260504000044 21 0 0.0 0.0 0.00 0.00 0.00 45 1017.6
20260503234540 22 0 0.0 0.0 0.00 0.00 0.00 36 1017.5
20260503233047 22 0 0.0 1.6 0.00 0.00 0.00 36 1017.6
20260503231545 22 0 0.0 0.0 0.00 0.00 0.00 34 1017.5
20260503230050 22 0 0.0 3.2 0.00 0.00 0.00 34 1017.4
20260503224544 23 0 0.0 1.6 0.00 0.00 0.00 33 1017.4
20260503223041 23 0 0.0 0.0 0.00 0.00 0.00 32 1017.5
20260503221539 23 0 0.0 0.0 0.00 0.00 0.00 33 1017.6
20260503220038 23 0 0.0 6.4 0.00 0.00 0.00 32 1017.7
20260503214547 25 0 0.0 16.1 0.00 0.00 0.00 29 1017.7
20260503213044 25 0 0.0 3.2 0.00 0.00 0.00 32 1017.6
20260503211544 24 0 0.0 14.5 0.00 0.00 0.00 29 1017.8
20260503210040 25 0 0.0 4.8 0.00 0.00 0.00 28 1017.8
20260503204539 25 0 0.0 0.0 0.00 0.00 0.00 31 1017.9
20260503203044 25 0 0.0 1.6 0.00 0.00 0.00 28 1018.2
20260503201543 25 0 0.0 6.4 0.00 0.00 0.00 28 1018.4
20260503200044 25 0 0.0 0.0 0.00 0.00 0.00 32 1018.4
20260503194543 25 0 0.0 14.5 0.00 0.00 0.00 29 1018.6
20260503193045 24 0 0.0 1.6 0.00 0.00 0.00 34 1019.1
20260503191540 23 0 0.0 6.4 0.00 0.00 0.00 30 1019.4
20260503190038 23 0 0.0 8.0 0.00 0.00 0.00 29 1019.7
20260503184553 24 0 0.0 4.8 0.00 0.00 0.00 31 1019.9
20260503183045 24 0 0.0 0.0 0.00 0.00 0.00 32 1019.9
20260503181537 23 0 0.0 0.0 0.00 0.00 0.00 33 1019.9
20260503180052 22 0 0.0 1.6 0.00 0.00 0.00 34 1020.0
20260503174544 22 26 0.0 12.9 0.00 0.00 0.00 34 1020.1
20260503173047 22 0 0.0 9.7 0.00 0.00 0.00 33 1020.1
20260503171547 22 0 0.0 17.7 0.00 0.00 0.00 33 1020.6